TimeEDT,TemperatureF,Dew PointF,Humidity,Sea Level PressureIn,VisibilityMPH,Wind Direction,Wind SpeedMPH,Gust SpeedMPH,PrecipitationIn,Events,Conditions,WindDirDegrees,DateUTC
12:15 AM,59.0,57.6,95,29.75,10.0,Calm,Calm,-,N/A,,Clear,0,2013-07-20 04:15:00
12:35 AM,59.9,57.0,90,29.75,10.0,Calm,Calm,-,N/A,,Clear,0,2013-07-20 04:35:00
12:54 AM,61.5,57.6,87,29.75,10.0,Calm,Calm,-,N/A,,Clear,0,2013-07-20 04:54:00
1:15 AM,61.2,57.2,87,29.75,10.0,West,4.6,-,0.01,,Clear,260,2013-07-20 05:15:00
1:35 AM,63.1,58.3,84,29.75,10.0,West,5.8,-,0.01,,Clear,260,2013-07-20 05:35:00
1:54 AM,62.6,57.9,85,29.75,10.0,West,4.6,-,0.01,,Clear,270,2013-07-20 05:54:00
2:15 AM,64.0,58.1,81,29.75,10.0,West,4.6,-,N/A,,Clear,260,2013-07-20 06:15:00
2:35 AM,64.9,58.1,78,29.75,10.0,West,4.6,-,N/A,,Clear,260,2013-07-20 06:35:00
2:55 AM,65.5,58.1,77,29.75,10.0,West,6.9,-,N/A,,Mostly Cloudy,260,2013-07-20 06:55:00
3:15 AM,65.5,58.6,79,29.74,10.0,West,4.6,-,N/A,,Overcast,260,2013-07-20 07:15:00
3:34 AM,65.5,58.5,78,29.74,10.0,West,5.8,-,N/A,,Overcast,270,2013-07-20 07:34:00
3:55 AM,65.5,58.6,79,29.74,10.0,West,5.8,-,N/A,,Overcast,280,2013-07-20 07:55:00
4:15 AM,64.6,57.6,78,29.75,10.0,WNW,9.2,-,N/A,,Scattered Clouds,300,2013-07-20 08:15:00
4:34 AM,63.3,56.7,79,29.75,10.0,NW,8.1,-,N/A,,Clear,310,2013-07-20 08:34:00
4:55 AM,62.2,56.3,81,29.77,10.0,NW,8.1,-,N/A,,Clear,320,2013-07-20 08:55:00
5:15 AM,61.3,56.3,83,29.77,10.0,NW,10.4,-,N/A,,Mostly Cloudy,320,2013-07-20 09:15:00
5:34 AM,60.4,55.4,83,29.77,10.0,NNW,10.4,16.1,N/A,,Mostly Cloudy,340,2013-07-20 09:34:00
5:55 AM,59.2,54.5,84,29.79,10.0,NNW,10.4,-,N/A,,Scattered Clouds,330,2013-07-20 09:55:00
6:15 AM,58.5,53.6,84,29.80,10.0,NNW,10.4,-,N/A,,Clear,340,2013-07-20 10:15:00
6:34 AM,57.9,52.7,83,29.81,10.0,NNW,10.4,-,N/A,,Clear,340,2013-07-20 10:34:00
6:55 AM,57.4,51.8,82,29.81,10.0,NNW,9.2,-,N/A,,Clear,340,2013-07-20 10:55:00
7:14 AM,57.7,51.4,79,29.83,10.0,NNW,11.5,16.1,N/A,,Clear,340,2013-07-20 11:14:00
7:35 AM,58.3,51.1,77,29.83,10.0,NNW,11.5,-,N/A,,Clear,340,2013-07-20 11:35:00
7:55 AM,59.0,51.3,75,29.84,10.0,NNW,11.5,16.1,N/A,,Clear,340,2013-07-20 11:55:00
8:14 AM,59.5,51.4,75,29.85,10.0,North,15.0,20.7,N/A,,Clear,350,2013-07-20 12:14:00
8:35 AM,60.3,51.1,72,29.86,10.0,North,15.0,20.7,N/A,,Clear,350,2013-07-20 12:35:00
8:55 AM,61.0,50.7,69,29.86,10.0,North,15.0,19.6,N/A,,Clear,350,2013-07-20 12:55:00
9:14 AM,61.5,48.7,63,29.87,10.0,North,15.0,24.2,N/A,,Clear,350,2013-07-20 13:14:00
9:35 AM,62.4,47.5,58,29.88,10.0,NNW,16.1,20.7,N/A,,Clear,330,2013-07-20 13:35:00
9:55 AM,62.6,44.8,52,29.88,10.0,North,15.0,21.9,N/A,,Clear,360,2013-07-20 13:55:00
10:15 AM,63.7,45.1,51,29.89,10.0,North,11.5,24.2,N/A,,Clear,350,2013-07-20 14:15:00
10:35 AM,64.8,43.7,46,29.90,10.0,North,16.1,24.2,N/A,,Clear,350,2013-07-20 14:35:00
10:54 AM,65.1,44.6,47,29.91,10.0,NNW,13.8,20.7,N/A,,Clear,330,2013-07-20 14:54:00
11:15 AM,65.3,43.0,44,29.92,10.0,North,15.0,20.7,N/A,,Clear,350,2013-07-20 15:15:00
11:35 AM,65.5,43.9,46,29.93,10.0,North,13.8,23.0,N/A,,Clear,350,2013-07-20 15:35:00
11:54 AM,66.2,45.0,46,29.93,10.0,NNW,11.5,21.9,N/A,,Clear,340,2013-07-20 15:54:00
12:15 PM,66.0,43.2,43,29.94,10.0,North,12.7,23.0,N/A,,Clear,350,2013-07-20 16:15:00
12:35 PM,66.4,44.1,44,29.94,10.0,North,13.8,20.7,N/A,,Clear,350,2013-07-20 16:35:00
12:54 PM,67.8,45.3,44,29.95,10.0,NNW,12.7,18.4,N/A,,Clear,340,2013-07-20 16:54:00
1:15 PM,67.6,44.8,44,29.94,10.0,NNW,12.7,18.4,N/A,,Clear,340,2013-07-20 17:15:00
1:34 PM,67.8,45.0,44,29.94,10.0,North,13.8,17.3,N/A,,Clear,350,2013-07-20 17:34:00
1:55 PM,68.2,43.5,41,29.95,10.0,NW,12.7,18.4,N/A,,Clear,310,2013-07-20 17:55:00
2:15 PM,68.0,44.8,43,29.96,10.0,NNW,9.2,18.4,N/A,,Clear,340,2013-07-20 18:15:00
2:34 PM,67.3,44.1,43,29.95,10.0,NNW,16.1,24.2,N/A,,Clear,340,2013-07-20 18:34:00
2:55 PM,68.2,45.7,44,29.95,10.0,NNW,18.4,23.0,N/A,,Clear,330,2013-07-20 18:55:00
3:15 PM,66.9,44.1,44,29.95,10.0,North,15.0,20.7,N/A,,Clear,350,2013-07-20 19:15:00
3:34 PM,67.5,43.7,42,29.95,10.0,NNW,12.7,19.6,N/A,,Clear,330,2013-07-20 19:34:00
3:55 PM,67.3,43.0,41,29.96,10.0,NNW,13.8,23.0,N/A,,Clear,340,2013-07-20 19:55:00
4:15 PM,67.3,44.2,43,29.96,10.0,NNW,16.1,20.7,N/A,,Clear,340,2013-07-20 20:15:00
4:34 PM,66.9,43.5,43,29.96,10.0,NW,15.0,21.9,N/A,,Clear,320,2013-07-20 20:34:00
4:55 PM,66.9,44.8,45,29.97,10.0,NW,12.7,16.1,N/A,,Clear,310,2013-07-20 20:55:00
5:14 PM,66.2,43.3,44,29.97,10.0,NNW,16.1,23.0,N/A,,Clear,330,2013-07-20 21:14:00
5:35 PM,65.3,43.3,45,29.97,10.0,NNW,11.5,21.9,N/A,,Clear,340,2013-07-20 21:35:00
5:55 PM,64.8,43.7,46,29.97,10.0,NNW,15.0,19.6,N/A,,Clear,340,2013-07-20 21:55:00
6:14 PM,64.2,43.2,46,29.98,10.0,NNW,11.5,19.6,N/A,,Clear,340,2013-07-20 22:14:00
6:35 PM,64.0,44.1,48,29.98,10.0,NNW,11.5,-,N/A,,Clear,340,2013-07-20 22:35:00
6:55 PM,62.8,43.9,50,29.98,10.0,North,10.4,21.9,N/A,,Clear,350,2013-07-20 22:55:00
7:14 PM,61.9,43.2,50,29.97,10.0,North,12.7,19.6,N/A,,Clear,360,2013-07-20 23:14:00
7:35 PM,60.8,43.2,52,29.97,10.0,North,10.4,20.7,N/A,,Clear,350,2013-07-20 23:35:00
7:55 PM,59.9,43.7,55,29.97,10.0,NNW,11.5,17.3,N/A,,Clear,340,2013-07-20 23:55:00
8:14 PM,59.4,44.2,57,29.97,10.0,North,11.5,-,N/A,,Clear,360,2013-07-21 00:14:00
8:35 PM,58.1,43.9,59,29.97,10.0,North,10.4,-,N/A,,Clear,350,2013-07-21 00:35:00
8:54 PM,56.5,43.9,63,29.97,10.0,North,6.9,-,N/A,,Clear,360,2013-07-21 00:54:00
9:15 PM,54.5,44.6,69,29.98,10.0,North,6.9,-,N/A,,Clear,360,2013-07-21 01:15:00
9:35 PM,53.4,45.0,73,29.99,10.0,North,9.2,-,N/A,,Clear,350,2013-07-21 01:35:00
9:54 PM,52.5,45.1,76,30.00,10.0,North,5.8,-,N/A,,Clear,360,2013-07-21 01:54:00
10:15 PM,51.1,45.1,80,30.01,10.0,North,6.9,-,N/A,,Clear,350,2013-07-21 02:15:00
10:34 PM,50.2,45.1,83,30.01,10.0,North,6.9,-,N/A,,Clear,350,2013-07-21 02:34:00
10:55 PM,49.1,45.0,86,30.01,10.0,North,6.9,-,N/A,,Clear,350,2013-07-21 02:55:00
11:15 PM,49.1,45.1,86,30.02,10.0,North,8.1,-,N/A,,Clear,350,2013-07-21 03:15:00
11:34 PM,48.7,45.0,87,30.03,10.0,North,6.9,-,N/A,,Clear,350,2013-07-21 03:34:00
11:55 PM,47.7,44.6,89,30.03,10.0,North,6.9,-,N/A,,Clear,360,2013-07-21 03:55:00